Погода в Серково

Россия / Костромская область     57°28′07″N   41°30′46″E
темп.,
°C
ветер,
м/с
пор.,
м/с
влажн.,
%
обл.,
%
осадки,
мм/ч
давл.,
гПа
погр.,
м
13 июня, вс
вс1300:00+14вюв389775 0.1 1008155
03:00+13юв3598100 0.1 1007112
06:00+15юв3695100 0.0 1007214
09:00+20ююв457614 0.0 1007751
12:00+23ю456372 0.3 10071411
15:00+22ююз347057 1.9 10071122
18:00+22ююз237665 1.1 1007626
21:00+17ююз228975 2.7 100827
14 июня, пн
пн1400:00+15зюз229459 1.4 100922
03:00+14зюз229348 1.4 101025
06:00+16зюз24916 0.0 1011157
09:00+21юз347331 0.0 1013564
12:00+24з45615 0.1 10131295
15:00+25з34534 0.1 10131665
18:00+23ююз226880 0.1 1013221
21:00+20ююз227494 0.1 101412
15 июня, вт
вт1500:00+19зюз227872 0.1 101422
03:00+16зюз119036 0.3 101411
06:00+18ююз128726 0.1 1014113
09:00+21юз237695 0.1 1013393
12:00+24юз23627 1.9 1012832
15:00+25юз335638 2.3 10111409
18:00+24зюз237173 0.0 1010528
21:00+19зсз228079 0.4 100911
16 июня, ср
ср1600:00+17сз118795 0.4 100911
03:00+16с119028 0.4 100811
06:00+18сз128836 0.2 1009126
09:00+21ссз45793 2.2 1008408
12:00+22сз685640 1.1 10091303
15:00+21сз69561 1.1 10111564
18:00+17ссз5115943 0.0 1012488
21:00+14сз49673 0.0 1014139
17 июня, чт
чт1700:00+11ссз310670 0.0 1017164
03:00+10сз49702 0.0 1019143
06:00+12ссз39730 0.0 1020241
09:00+18сз46550 0.0 1022717
12:00+20зсз57483 0.0 10221971
15:00+21сз57474 0.0 10222117
18:00+20ссз47570 0.0 1023644
21:00+14ссз33670 0.0 102533